Location: Keppel Henge
(44.7900°N, 80.9447°W)
Time: 23:49:47
(UTC-04:00)

OTV 5 (USA 277) - Pass Details

Date: 10 October 2017
Orbit: 404 x 417 km, 43.0° (Epoch: 07 September)

Event Time Altitude Azimuth Distance (km) Brightness Sun altitude
Rises 21:19:03 0° 250° (WSW) 2,350 ? -27.4°
Reaches altitude 10° 21:21:11 10° 246° (WSW) 1,488 ? -27.8°
Enters shadow 21:21:37 13° 244° (WSW) 1,314 ? -27.9°
